TimeMST,TemperatureF,Dew PointF,Humidity,Sea Level PressureIn,VisibilityMPH,Wind Direction,Wind SpeedMPH,Gust SpeedMPH,PrecipitationIn,Events,Conditions,WindDirDegrees,DateUTC
12:53 AM,34.0,16.0,48,30.18,10.0,Calm,Calm,-,N/A,,Scattered Clouds,0,2012-12-04 07:53:00
1:53 AM,34.0,16.0,48,30.19,10.0,NNW,5.8,-,N/A,,Overcast,330,2012-12-04 08:53:00
2:53 AM,30.9,14.0,50,30.22,10.0,West,3.5,-,N/A,,Partly Cloudy,270,2012-12-04 09:53:00
3:53 AM,28.9,15.1,56,30.24,10.0,Calm,Calm,-,N/A,,Clear,0,2012-12-04 10:53:00
4:53 AM,28.0,12.9,53,30.27,10.0,SSW,5.8,-,N/A,,Clear,210,2012-12-04 11:53:00
5:53 AM,25.0,12.0,58,30.32,10.0,West,12.7,-,N/A,,Clear,270,2012-12-04 12:53:00
6:53 AM,25.0,12.0,58,30.35,10.0,West,11.5,-,N/A,,Clear,280,2012-12-04 13:53:00
7:53 AM,30.0,12.9,49,30.36,10.0,WSW,4.6,-,N/A,,Clear,240,2012-12-04 14:53:00
8:53 AM,34.0,12.9,42,30.35,10.0,WSW,5.8,-,N/A,,Clear,250,2012-12-04 15:53:00
9:53 AM,39.0,15.1,38,30.37,10.0,West,5.8,-,N/A,,Clear,280,2012-12-04 16:53:00
10:53 AM,44.1,17.1,34,30.33,10.0,WSW,5.8,-,N/A,,Clear,240,2012-12-04 17:53:00
11:53 AM,48.9,18.0,29,30.30,10.0,SW,6.9,-,N/A,,Clear,220,2012-12-04 18:53:00
12:53 PM,52.0,18.0,26,30.26,10.0,South,6.9,-,N/A,,Clear,190,2012-12-04 19:53:00
1:53 PM,54.0,17.1,23,30.22,10.0,SSE,3.5,-,N/A,,Clear,160,2012-12-04 20:53:00
2:53 PM,55.9,17.1,22,30.20,10.0,ESE,5.8,-,N/A,,Clear,120,2012-12-04 21:53:00
3:53 PM,55.0,18.0,23,30.20,10.0,ESE,4.6,-,N/A,,Clear,120,2012-12-04 22:53:00
4:53 PM,48.9,18.0,29,30.19,10.0,ESE,6.9,-,N/A,,Clear,110,2012-12-04 23:53:00
5:53 PM,46.9,19.0,33,30.20,10.0,East,3.5,-,N/A,,Clear,80,2012-12-05 00:53:00
6:53 PM,44.1,18.0,35,30.21,10.0,NNE,4.6,-,N/A,,Clear,30,2012-12-05 01:53:00
7:53 PM,37.9,16.0,41,30.21,10.0,North,4.6,-,N/A,,Clear,10,2012-12-05 02:53:00
8:53 PM,37.0,17.1,44,30.20,10.0,WNW,6.9,-,N/A,,Clear,290,2012-12-05 03:53:00
9:53 PM,36.0,17.1,46,30.19,10.0,WNW,8.1,-,N/A,,Clear,300,2012-12-05 04:53:00
10:53 PM,34.0,16.0,48,30.19,10.0,West,10.4,-,N/A,,Clear,270,2012-12-05 05:53:00
11:53 PM,32.0,12.9,45,30.18,10.0,West,9.2,-,N/A,,Clear,270,2012-12-05 06:53:00